Kahului, HI

8:25 AM HST on January 17, 2017 (GMT -1000)
Kahului

Weather History for PHOG - August, 2013

Change the Weather History Date:

Wednesday, August 7, 2013

  Actual Average Record
Temperature  
Mean Temperature 82 °F 80 °F  
Max Temperature 89 °F 88 °F 96 °F (1953)
Min Temperature 74 °F 72 °F 63 °F (1971)
Cooling Degree Days 17 15  
Month to date cooling degree days 111 105  
Year to date cooling degree days 2413 2191  
Since 1 June cooling degree days 1029 932  
Growing Degree Days 31 (Base 50)    
Moisture  
Dew Point 72 °F    
Average Humidity 74    
Maximum Humidity 100    
Minimum Humidity 48    
Precipitation  
Precipitation 0.00 in 0.02 in 0.87 in (1991)
Month to date precipitation 0.03 0.13  
Year to date precipitation 8.15 10.33  
Snow  
Snow 0.00 in - - ()
Month to date snowfall 0.0  
Since 1 June snowfall 0.0  
Since 1 July snowfall 0.0  
Snow Depth 0.00 in    
Sea Level Pressure  
Sea Level Pressure 30.03 in    
Wind  
Wind Speed 14 mph (NE)    
Max Wind Speed 28 mph    
Max Gust Speed 32 mph    
Visibility 10 miles    
Events      
T = Trace of Precipitation, MM = Missing Value Source: NWS Daily Summary

Daily Weather History Graph

Daily Weather History Graph

Search for Another Location

Airport or City:

Trip Planner

Search our weather history database for the weather conditions in past years. The results will help you decide how hot, cold, wet, or windy it might be!

Date:

Astronomy

Aug. 07, 2013 Rise Set
Actual Time 6:02 AM HST 7:00 PM HST
Civil Twilight 5:38 AM HST 7:23 PM HST
Nautical Twilight 5:11 AM HST 7:51 PM HST
Astronomical Twilight 4:42 AM HST 8:19 PM HST
Moon 6:46 AM HST (8/7) 7:32 PM HST (8/7)
Length of Visible Light 13h 44m
Length of Day
12h 58m
New Moon, 1% of the Moon is Illuminated
Aug 7
New Moon
Aug 14
First Quarter
Aug 20
Full
Aug 27
Last Quarter
Sep 5
New

Hourly Weather History & Observations

Time (HST) Temp. Heat Index Dew Point Humidity Pressure Visibility Wind Dir Wind Speed Gust Speed Precip Events Conditions
12:54 AM 75.0 °F - 73.9 °F 96% 30.04 in 10.0 mi NE 12.7 mph - N/A   Clear
1:54 AM 73.9 °F - 73.9 °F 100% 30.03 in 10.0 mi NE 10.4 mph - N/A   Clear
2:54 AM 73.9 °F - 73.9 °F 100% 30.02 in 10.0 mi NE 10.4 mph - N/A   Unknown
3:54 AM 75.0 °F - 75.0 °F 100% 30.02 in 10.0 mi NNE 12.7 mph - N/A   Clear
4:54 AM 73.9 °F - 73.9 °F 100% 30.03 in 10.0 mi NE 9.2 mph - N/A   Clear
5:54 AM 73.9 °F - 73.9 °F 100% 30.04 in 10.0 mi NE 9.2 mph - N/A   Clear
6:54 AM 75.9 °F - 75.9 °F 100% 30.05 in 10.0 mi NE 9.2 mph - N/A   Clear
7:54 AM 79.0 °F - 79.0 °F 100% 30.06 in 10.0 mi NE 13.8 mph - N/A   Partly Cloudy
8:54 AM 82.0 °F 93.7 °F 81.0 °F 97% 30.06 in 10.0 mi NE 18.4 mph 25.3 mph N/A   Scattered Clouds
9:54 AM 84.9 °F 103.4 °F 82.9 °F 94% 30.05 in 10.0 mi NE 19.6 mph 25.3 mph N/A   Scattered Clouds
10:54 AM 86.0 °F 102.5 °F 81.0 °F 85% 30.05 in 10.0 mi ENE 16.1 mph 27.6 mph N/A   Scattered Clouds
11:54 AM 86.0 °F 87.3 °F 64.4 °F 48% 30.04 in 10.0 mi ENE 16.1 mph 27.6 mph N/A   Partly Cloudy
12:54 PM 88.0 °F 91.4 °F 68.0 °F 51% 30.02 in 10.0 mi ENE 16.1 mph 26.5 mph N/A   Partly Cloudy
1:54 PM 88.0 °F 91.4 °F 68.0 °F 51% 30.01 in 10.0 mi NE 23.0 mph 32.2 mph N/A   Scattered Clouds
2:54 PM 86.0 °F 90.4 °F 69.8 °F 58% 29.99 in 10.0 mi NE 19.6 mph 27.6 mph N/A   Scattered Clouds
3:54 PM 84.9 °F 88.2 °F 68.0 °F 57% 29.99 in 10.0 mi NE 20.7 mph 29.9 mph N/A   Scattered Clouds
4:54 PM 84.9 °F 87.1 °F 66.2 °F 53% 29.99 in 10.0 mi NE 17.3 mph 26.5 mph N/A   Partly Cloudy
5:54 PM 82.0 °F 84.9 °F 68.0 °F 62% 29.99 in 10.0 mi ENE 24.2 mph 34.5 mph N/A   Partly Cloudy
6:54 PM 78.1 °F - 68.0 °F 71% 30.02 in 10.0 mi ENE 15.0 mph 20.7 mph N/A   Scattered Clouds
7:54 PM 78.1 °F - 68.0 °F 71% 30.04 in 10.0 mi ENE 11.5 mph 18.4 mph N/A   Partly Cloudy
8:54 PM 75.9 °F - 68.0 °F 76% 30.06 in 10.0 mi NE 13.8 mph - N/A   Clear
9:54 PM 75.9 °F - 68.0 °F 76% 30.08 in 10.0 mi NE 11.5 mph - N/A   Partly Cloudy
10:54 PM 75.0 °F - 68.0 °F 79% 30.08 in 10.0 mi NE 13.8 mph - N/A   Clear
11:54 PM 73.9 °F - - N/A% 30.08 in 10.0 mi ENE 6.9 mph - N/A   Clear